SWR282 LSZH-FAOR

Flight info

Callsign SWR282
Flight time N/A
Altitude 35000
Route VEBIT T53 GERSA N850 SOSON DCT ODINA DCT EVROG DCT OLBEK DCT OSMAR UM733 TUC/N0460F360 UW411 EBA UG362 BARKA/N0460F350 UM2 NAGAH/N0459F370 UM2 DJA UB730 DIR UG727 MIU UM998 LUSKA/N0459F390 UM998 IBRIT UT941 RUDAS UQ25 ITROL/N0453F400 UQ44 AVAGO AVAGO1C
Aircraft A343/H-SDE2E3FGHIJ4J5M1RWXY/LB1D1

Departure

Time N/A
Airport Zürich Airport (LSZH)

Arrival

Time 2026-05-04 16:39
Airport O.R. Tambo International Airport (FAOR)
Time Latitude Longitude Altitude Speed Heading
2026-05-04 16:15 -24.90155 27.30273 35958 ft 512 kts 143°
2026-05-04 16:16 -24.95499 27.35526 34692 ft 517 kts 143°
2026-05-04 16:16 -25.03994 27.42583 32918 ft 500 kts 165°
2026-05-04 16:17 -25.10695 27.43658 31563 ft 484 kts 186°
2026-05-04 16:18 -25.20665 27.43739 30179 ft 474 kts 185°
2026-05-04 16:18 -25.23979 27.43776 29662 ft 471 kts 185°
2026-05-04 16:19 -25.33668 27.43903 28253 ft 458 kts 185°
2026-05-04 16:19 -25.40004 27.43988 27313 ft 452 kts 185°
2026-05-04 16:20 -25.49342 27.44116 25924 ft 444 kts 184°
2026-05-04 16:20 -25.55428 27.44203 25459 ft 427 kts 184°
2026-05-04 16:21 -25.64072 27.44325 24943 ft 402 kts 184°
2026-05-04 16:22 -25.69587 27.44631 24394 ft 400 kts 170°
2026-05-04 16:22 -25.75655 27.50629 23350 ft 400 kts 119°
2026-05-04 16:23 -25.79892 27.58524 22251 ft 393 kts 120°
2026-05-04 16:24 -25.85556 27.68733 20620 ft 385 kts 121°
2026-05-04 16:25 -25.88356 27.73756 19883 ft 380 kts 120°
2026-05-04 16:26 -25.93835 27.83595 18453 ft 371 kts 120°
2026-05-04 16:26 -25.97859 27.90834 17318 ft 363 kts 120°
2026-05-04 16:27 -26.00485 27.95564 16701 ft 354 kts 120°
2026-05-04 16:28 -26.04224 28.02306 16298 ft 329 kts 120°
2026-05-04 16:28 -26.07934 28.08422 15838 ft 310 kts 143°
2026-05-04 16:29 -26.15982 28.08778 14483 ft 305 kts 201°
2026-05-04 16:30 -26.21806 28.06622 13931 ft 287 kts 203°
2026-05-04 16:31 -26.25566 28.05166 13319 ft 285 kts 204°
2026-05-04 16:31 -26.31109 28.03001 12472 ft 278 kts 204°
2026-05-04 16:32 -26.36587 28.04051 11546 ft 289 kts 135°
2026-05-04 16:33 -26.39156 28.07409 11124 ft 281 kts 125°
2026-05-04 16:33 -26.39790 28.11476 10544 ft 268 kts 68°
2026-05-04 16:34 -26.37535 28.14564 9978 ft 256 kts 35°
2026-05-04 16:34 -26.36171 28.15819 9714 ft 252 kts 34°
2026-05-04 16:35 -26.31901 28.18451 8977 ft 217 kts
2026-05-04 16:35 -26.27712 28.19338 8332 ft 197 kts 13°
2026-05-04 16:36 -26.26412 28.19786 8058 ft 193 kts 15°
2026-05-04 16:36 -26.23891 28.20645 7604 ft 184 kts 12°
2026-05-04 16:37 -26.21512 28.21301 7068 ft 174 kts 12°
2026-05-04 16:37 -26.20303 28.21699 6860 ft 187 kts 13°
2026-05-04 16:37 -26.17967 28.22410 6375 ft 164 kts 11°
2026-05-04 16:38 -26.15902 28.23059 5889 ft 144 kts 11°
2026-05-04 16:39 -26.13384 28.23825 5556 ft 71 kts 15°
2026-05-04 16:39 -26.12844 28.23985 5551 ft 30 kts
2026-05-04 16:40 -26.12575 28.23954 5550 ft 9 kts 338°
2026-05-04 16:40 -26.12570 28.23882 5552 ft 5 kts 226°
2026-05-04 16:41 -26.12654 28.23847 5554 ft 9 kts 196°
2026-05-04 16:41 -26.12930 28.23764 5553 ft 15 kts 195°
2026-05-04 16:42 -26.13122 28.23698 5554 ft 8 kts 221°
2026-05-04 16:43 -26.13127 28.23597 5551 ft 8 kts 276°
2026-05-04 16:43 -26.13114 28.23470 5552 ft 8 kts 276°
2026-05-04 16:43 -26.13134 28.23420 5555 ft 7 kts 215°
2026-05-04 16:44 -26.13229 28.23328 5552 ft 2 kts 277°
2026-05-04 16:45 -26.13227 28.23316 5553 ft 0 kts 276°